Location: Beneden-Haastrecht
(52.0012°N, 4.7557°E)
Time: 03:20:07
(UTC+00:00)

Cosmos 1850 Rocket - Pass Details

Date: 24 October 2020
Orbit: 753 x 786 km, 74.0° (Epoch: 27 November)

Event Time Altitude Azimuth Distance (km) Brightness Sun altitude
Rises 16:58:30 0° 334° (NNW) 3,258 7.4 -5.5°
Reaches altitude 10° 17:00:52 10° 334° (NNW) 2,332 6.7 -5.8°
Maximum altitude 17:06:11 84° 248° (WSW) 791 4.2 -6.6°
Drops below altitude 10° 17:11:30 10° 160° (SSE) 2,335 6.4 -7.4°
Sets 17:13:53 0° 160° (SSE) 3,262 7.1 -7.8°
